When you browse on this site, cookies collect data to enhance your experience and personalize the content and advertising you see.
Visit our Privacy Policy to learn more. By continuing to use the site, you agree to this use of cookies and data.
  • Em Portugal
  • Lista de países
  • Para 7 dias
  • Temperatura da água
  • Mapas de satélite
  • Mapa do tempo
  • Widgets de tempo
  • user-avatar
    Iniciar Sessão

    Previsão horária em Garani

    Hoje, 16 Fevereiro, Sábado

    Tempo Temperatura Precipitação Vento Pressão Humidade
    00:00 0°C° 0 mm 4 m/s 753 mmHg 96%
    01:00 0°C° 0 mm 4 m/s 753 mmHg 96%
    02:00 0°C° 0 mm 3 m/s 753 mmHg 96%
    03:00 0°C° 0 mm 3 m/s 752 mmHg 96%
    04:00 -1°C° 0 mm 4 m/s 752 mmHg 96%
    05:00 -1°C° 0 mm 4 m/s 752 mmHg 97%
    06:00 -1°C° 0 mm 4 m/s 752 mmHg 96%
    07:00 -1°C° 0 mm 4 m/s 752 mmHg 96%
    08:00 -1°C° 0 mm 4 m/s 752 mmHg 96%
    09:00 -1°C° 0 mm 4 m/s 751 mmHg 95%
    10:00 -1°C° 0 mm 4 m/s 751 mmHg 95%
    11:00 -1°C° 0 mm 4 m/s 751 mmHg 95%
    12:00 0°C° 0 mm 4 m/s 750 mmHg 92%
    13:00 +1°C° 0 mm 4 m/s 750 mmHg 89%
    14:00 +3°C° 0 mm 4 m/s 750 mmHg 89%
    15:00 +1°C° 0 mm 4 m/s 750 mmHg 87%
    16:00 +1°C° 0 mm 4 m/s 749 mmHg 84%
    17:00 +1°C° 0 mm 4 m/s 749 mmHg 82%
    18:00 0°C° 0 mm 4 m/s 748 mmHg 81%
    19:00 0°C° 0 mm 5 m/s 748 mmHg 80%
    20:00 0°C° 0 mm 5 m/s 747 mmHg 79%
    21:00 0°C° 0 mm 5 m/s 747 mmHg 79%
    22:00 0°C° 0 mm 5 m/s 746 mmHg 79%
    23:00 0°C° 0 mm 5 m/s 746 mmHg 78%

    Amanhã, 17 Fevereiro, Domingo

    Tempo Temperatura Precipitação Vento Pressão Humidade
    00:00 0°C° 0 mm 5 m/s 745 mmHg 79%
    01:00 0°C° 0 mm 5 m/s 745 mmHg 81%
    02:00 0°C° 0 mm 5 m/s 745 mmHg 82%
    03:00 0°C° 0 mm 5 m/s 745 mmHg 84%
    04:00 -1°C° 0 mm 5 m/s 744 mmHg 87%
    05:00 -1°C° 0 mm 5 m/s 744 mmHg 90%
    06:00 0°C° 0 mm 5 m/s 744 mmHg 91%
    07:00 0°C° 0 mm 5 m/s 745 mmHg 93%
    08:00 0°C° 0 mm 5 m/s 745 mmHg 94%
    09:00 0°C° 0 mm 5 m/s 745 mmHg 94%
    10:00 +1°C° 0 mm 5 m/s 746 mmHg 94%
    11:00 +1°C° 0 mm 5 m/s 746 mmHg 93%
    12:00 +1°C° 0 mm 5 m/s 746 mmHg 91%
    13:00 +1°C° 0 mm 5 m/s 747 mmHg 88%
    14:00 +1°C° 0 mm 5 m/s 747 mmHg 86%
    15:00 +1°C° 0 mm 5 m/s 747 mmHg 85%
    16:00 0°C° 0 mm 4 m/s 747 mmHg 84%
    17:00 -1°C° 0 mm 4 m/s 748 mmHg 84%
    18:00 -1°C° 0 mm 4 m/s 748 mmHg 84%
    19:00 -2°C° 0 mm 4 m/s 748 mmHg 85%
    20:00 -2°C° 0 mm 3 m/s 749 mmHg 86%
    21:00 -2°C° 0 mm 3 m/s 749 mmHg 87%
    22:00 -4°C° 0 mm 3 m/s 749 mmHg 88%
    23:00 -3°C° 0 mm 2 m/s 750 mmHg 89%

    Depois de amanhã, 18 Fevereiro, Segunda-feira

    Tempo Temperatura Precipitação Vento Pressão Humidade
    00:00 -3°C° 0 mm 2 m/s 750 mmHg 90%
    01:00 -3°C° 0 mm 2 m/s 750 mmHg 90%
    02:00 -4°C° 0 mm 2 m/s 751 mmHg 91%
    03:00 -2°C° 0 mm 1 m/s 751 mmHg 90%
    04:00 -2°C° 0 mm 1 m/s 751 mmHg 90%
    05:00 -2°C° 0 mm 1 m/s 751 mmHg 89%
    06:00 -2°C° 0 mm 1 m/s 752 mmHg 88%
    07:00 -2°C° 0 mm 1 m/s 752 mmHg 87%
    08:00 -3°C° 0 mm 0 m/s 752 mmHg 85%
    09:00 -2°C° 0 mm 0 m/s 752 mmHg 80%
    10:00 -1°C° 0 mm 0 m/s 753 mmHg 74%
    11:00 0°C° 0 mm 0 m/s 753 mmHg 68%
    12:00 +1°C° 0 mm 0 m/s 753 mmHg 66%
    13:00 +2°C° 0 mm 1 m/s 753 mmHg 65%
    14:00 +3°C° 0 mm 1 m/s 753 mmHg 63%
    15:00 +2°C° 0 mm 1 m/s 752 mmHg 67%
    16:00 -1°C° 0 mm 2 m/s 752 mmHg 71%
    17:00 -1°C° 0 mm 2 m/s 752 mmHg 75%
    18:00 -2°C° 0 mm 2 m/s 752 mmHg 76%
    19:00 -2°C° 0 mm 2 m/s 752 mmHg 77%
    20:00 -2°C° 0 mm 3 m/s 752 mmHg 78%
    21:00 -2°C° 0 mm 3 m/s 752 mmHg 78%
    22:00 -2°C° 0 mm 3 m/s 751 mmHg 79%
    23:00 -2°C° 0 mm 3 m/s 751 mmHg 79%

    19 Fevereiro, Terça-feira

    Tempo Temperatura Precipitação Vento Pressão Humidade
    00:00 -3°C° 0 mm 4 m/s 751 mmHg 81%
    01:00 -3°C° 0 mm 4 m/s 751 mmHg 82%
    02:00 -3°C° 0 mm 4 m/s 751 mmHg 84%
    03:00 -2°C° 0 mm 4 m/s 750 mmHg 85%
    04:00 -2°C° 0 mm 4 m/s 750 mmHg 86%
    05:00 -2°C° 0 mm 5 m/s 749 mmHg 87%
    06:00 -2°C° 0 mm 5 m/s 749 mmHg 88%
    07:00 -2°C° 0 mm 5 m/s 748 mmHg 88%
    08:00 -2°C° 0 mm 5 m/s 748 mmHg 89%
    09:00 -1°C° 0 mm 5 m/s 748 mmHg 85%
    10:00 -1°C° 0 mm 6 m/s 747 mmHg 82%
    11:00 +1°C° 0 mm 6 m/s 747 mmHg 79%
    12:00 +2°C° 0 mm 6 m/s 746 mmHg 78%
    13:00 +2°C° 0 mm 6 m/s 746 mmHg 77%
    14:00 +3°C° 0 mm 6 m/s 745 mmHg 77%
    15:00 +2°C° 0 mm 6 m/s 744 mmHg 79%
    16:00 +2°C° 0 mm 6 m/s 744 mmHg 81%
    17:00 +1°C° 0 mm 5 m/s 743 mmHg 84%
    18:00 +1°C° 0 mm 5 m/s 743 mmHg 85%
    19:00 +1°C° 0 mm 5 m/s 742 mmHg 86%
    20:00 +1°C° 0 mm 5 m/s 742 mmHg 87%
    21:00 0°C° 0 mm 5 m/s 741 mmHg 87%
    22:00 0°C° 0 mm 5 m/s 741 mmHg 87%
    23:00 0°C° 0 mm 5 m/s 740 mmHg 87%

    20 Fevereiro, Quarta-feira

    Tempo Temperatura Precipitação Vento Pressão Humidade
    00:00 0°C° 0.1 mm 5 m/s 740 mmHg 88%
    01:00 0°C° 0.1 mm 5 m/s 740 mmHg 89%
    02:00 0°C° 0.1 mm 5 m/s 739 mmHg 90%
    03:00 0°C° 0.3 mm 5 m/s 739 mmHg 90%
    04:00 0°C° 0.3 mm 5 m/s 739 mmHg 91%
    05:00 +1°C° 0.3 mm 5 m/s 739 mmHg 92%
    06:00 0°C° 0 mm 5 m/s 739 mmHg 92%
    07:00 0°C° 0 mm 5 m/s 739 mmHg 92%
    08:00 0°C° 0 mm 4 m/s 739 mmHg 93%
    09:00 +1°C° 0.1 mm 5 m/s 740 mmHg 89%
    10:00 +1°C° 0.1 mm 5 m/s 740 mmHg 86%
    11:00 +2°C° 0.1 mm 6 m/s 740 mmHg 82%
    12:00 +2°C° 0.1 mm 6 m/s 740 mmHg 82%
    13:00 +2°C° 0.1 mm 6 m/s 739 mmHg 81%
    14:00 +2°C° 0.1 mm 7 m/s 739 mmHg 81%
    15:00 0°C° 0.2 mm 7 m/s 739 mmHg 80%
    16:00 0°C° 0.2 mm 7 m/s 740 mmHg 80%
    17:00 0°C° 0.2 mm 7 m/s 740 mmHg 80%
    18:00 -1°C° 0 mm 6 m/s 740 mmHg 77%
    19:00 -2°C° 0 mm 6 m/s 741 mmHg 75%
    20:00 -3°C° 0 mm 6 m/s 742 mmHg 72%
    21:00 -3°C° 0 mm 6 m/s 742 mmHg 74%
    22:00 -3°C° 0 mm 6 m/s 743 mmHg 76%
    23:00 -3°C° 0 mm 7 m/s 743 mmHg 79%

    21 Fevereiro, Quinta-feira

    Tempo Temperatura Precipitação Vento Pressão Humidade
    00:00 -3°C° 0 mm 6 m/s 743 mmHg 78%
    01:00 -4°C° 0 mm 6 m/s 744 mmHg 77%
    02:00 -4°C° 0 mm 6 m/s 744 mmHg 76%
    03:00 -5°C° 0 mm 6 m/s 745 mmHg 74%
    04:00 -6°C° 0 mm 7 m/s 745 mmHg 71%
    05:00 -7°C° 0 mm 7 m/s 746 mmHg 69%
    06:00 -8°C° 0 mm 6 m/s 746 mmHg 68%
    07:00 -8°C° 0 mm 6 m/s 747 mmHg 66%
    08:00 -8°C° 0 mm 5 m/s 748 mmHg 65%
    09:00 -8°C° 0 mm 5 m/s 748 mmHg 62%
    10:00 -7°C° 0 mm 5 m/s 748 mmHg 60%
    11:00 -7°C° 0 mm 5 m/s 749 mmHg 58%
    12:00 -5°C° 0 mm 4 m/s 749 mmHg 56%
    13:00 -5°C° 0 mm 4 m/s 749 mmHg 54%
    14:00 -4°C° 0 mm 4 m/s 750 mmHg 52%
    15:00 -4°C° 0 mm 4 m/s 750 mmHg 54%
    16:00 -5°C° 0 mm 3 m/s 750 mmHg 55%
    17:00 -5°C° 0 mm 3 m/s 750 mmHg 57%
    18:00 -5°C° 0 mm 3 m/s 750 mmHg 59%
    19:00 -4°C° 0 mm 2 m/s 751 mmHg 62%
    20:00 -5°C° 0 mm 2 m/s 751 mmHg 64%
    21:00 -5°C° 0 mm 2 m/s 751 mmHg 64%
    22:00 -5°C° 0 mm 2 m/s 751 mmHg 63%
    23:00 -5°C° 0 mm 2 m/s 752 mmHg 63%
    Mostrar mais